Theta_e
356 358 358 350 334 332 323 324 331 329 330 336 336 334 333 337 331 326 349 352 357 356 357 358 366 368 368 369 367 367 367 366 364 365 364 364 363 364 364 363 363 363 363 363 364 366 363 362 362
356 357 353 343 330 320 322 329 327 332 336 339 337 335 333 334 340 342 346 353 357 356 357 359 365 367 368 369 367 368 366 366 365 363 364 364 363 363 362 362 361 361 361 361 362 362 363 364 362
353 356 344 336 330 320 322 329 331 334 337 335 334 337 335 335 341 344 351 354 357 357 358 363 366 367 367 368 369 369 367 367 364 362 362 360 360 362 362 362 361 361 361 361 361 360 360 361 362
349 350 344 330 323 328 328 331 333 333 336 337 335 332 339 345 344 349 352 354 356 357 359 363 366 364 366 367 367 368 363 362 358 355 357 355 355 355 360 362 361 361 360 359 359 359 358 358 358
349 341 328 324 324 330 334 335 335 332 334 336 336 330 336 343 350 351 353 353 355 356 359 361 367 366 366 367 367 363 360 358 356 351 351 351 353 355 354 358 360 360 360 360 359 358 359 358 356
339 339 323 318 322 329 334 337 335 333 334 336 332 334 338 348 348 350 354 353 353 355 357 359 365 366 366 365 363 364 361 358 355 353 351 353 350 351 354 354 357 359 360 359 357 358 357 356 355
333 330 321 322 323 326 332 338 334 334 333 334 338 334 340 344 348 351 353 353 354 355 357 360 360 364 364 366 364 362 362 359 355 354 354 352 349 347 354 353 355 356 357 357 356 357 357 356 355
336 330 318 321 320 325 335 336 338 335 334 343 342 334 335 345 348 350 351 352 352 353 355 357 359 359 361 363 364 363 362 360 358 355 356 353 352 349 354 352 354 354 355 356 356 356 355 356 356
336 321 316 319 319 324 337 331 339 343 337 339 341 341 345 347 348 347 346 347 350 352 353 353 354 357 356 359 362 364 363 362 360 357 356 354 347 345 345 351 352 355 355 355 355 355 357 357 357
328 319 318 324 327 327 334 334 336 336 336 337 339 346 348 345 345 343 342 342 344 348 351 352 354 356 357 356 361 366 364 356 356 357 357 356 353 344 344 347 350 354 357 355 354 355 359 357 357
326 320 324 324 327 330 331 334 338 334 330 333 336 343 345 343 342 342 342 344 344 349 352 353 356 357 358 357 362 368 366 360 361 358 354 359 354 347 347 346 345 352 356 352 353 354 355 356 357
320 325 325 326 331 332 329 333 332 334 336 340 341 346 345 342 340 341 342 343 345 349 352 354 358 360 360 358 357 358 365 362 363 360 358 353 358 359 357 349 354 353 352 351 353 350 359 358 356
320 322 323 327 329 331 333 331 331 333 340 343 344 346 344 343 343 343 345 346 348 349 352 355 358 361 360 361 359 357 362 365 362 363 363 357 354 359 360 355 358 353 353 351 351 352 356 356 353
321 322 322 323 326 329 328 327 333 334 342 343 343 343 345 344 345 346 346 346 348 350 352 355 357 361 362 362 363 358 357 358 365 362 362 361 356 356 355 358 359 356 355 353 349 356 352 352 352
321 318 321 322 323 325 328 323 326 334 341 340 341 342 344 345 347 347 349 349 351 352 353 354 357 359 361 362 361 360 357 355 365 366 362 360 359 358 361 355 355 353 353 355 356 355 354 352 352
316 319 314 319 321 325 325 314 321 332 336 336 340 341 342 345 346 349 352 352 354 354 355 357 355 356 360 361 361 358 358 358 365 358 360 360 361 360 360 355 357 363 356 356 352 352 351 353 354
315 311 310 312 319 318 322 317 324 327 332 332 338 341 342 344 347 350 351 353 354 356 357 358 356 354 359 362 361 361 363 365 349 356 353 357 359 356 363 354 360 360 360 360 359 353 352 351 351
309 309 310 310 314 316 314 316 320 325 329 329 334 338 341 342 344 349 351 352 354 356 358 356 353 357 361 360 362 363 363 363 357 353 355 356 359 357 359 358 361 358 364 361 356 360 360 354 352
312 311 309 312 315 313 314 315 317 321 323 325 331 335 338 341 346 349 350 347 354 356 357 359 358 353 363 358 357 357 362 361 355 356 354 358 359 360 356 352 357 358 364 357 357 357 355 353 356
312 310 310 313 314 313 314 314 318 319 321 323 327 334 335 340 344 348 350 351 351 355 357 360 362 363 361 359 360 359 357 362 359 356 357 358 360 360 363 354 354 361 367 361 360 361 354 354 355
312 309 309 309 313 315 314 314 317 321 325 327 326 333 335 339 341 345 349 350 350 349 352 359 363 364 364 364 362 361 361 363 362 355 356 356 360 361 361 361 357 358 363 363 361 358 358 349 354
309 313 311 310 310 307 314 308 316 320 322 326 328 327 333 338 342 343 346 349 350 347 350 357 361 364 365 365 363 363 363 358 366 366 366 360 361 361 359 360 362 359 355 357 364 356 360 355 352
310 313 312 312 311 311 311 309 314 321 320 325 330 332 333 332 340 342 344 349 352 350 349 349 359 363 363 364 365 363 358 359 368 355 358 361 361 362 361 362 364 362 361 356 358 357 356 352 354
314 313 313 313 312 306 309 309 312 318 323 327 331 334 335 334 335 342 345 347 351 354 355 351 355 362 363 363 364 364 362 363 357 365 362 354 355 357 362 361 361 366 360 362 359 359 357 355 355
314 311 306 303 304 305 311 309 313 321 327 330 332 334 336 336 337 339 343 346 350 352 354 353 359 359 363 363 363 364 364 364 362 364 356 355 352 354 358 362 362 366 364 361 364 359 358 356 357
312 312 307 299 303 305 311 305 315 324 330 334 335 336 337 338 341 342 344 347 350 352 355 356 358 360 360 362 363 365 365 362 360 361 357 355 354 354 360 360 361 361 360 358 356 363 355 358 356
312 310 314 308 308 305 310 311 317 325 326 331 334 335 338 339 342 345 347 347 350 352 354 356 357 359 360 359 362 363 364 364 361 364 363 361 361 359 362 360 360 360 360 357 354 356 355 359 359
315 316 308 311 301 300 306 307 310 318 322 329 331 335 338 340 342 345 345 346 347 349 352 355 357 357 359 355 355 355 358 362 364 364 365 361 364 362 363 360 359 356 357 357 359 357 358 359 358
313 312 313 312 309 303 301 306 318 319 325 327 328 334 338 340 339 339 339 341 345 349 351 352 353 355 354 354 356 358 359 359 362 358 355 355 362 362 361 361 356 354 352 357 355 357 357 357 356
314 313 313 307 306 309 306 306 322 325 329 328 328 333 340 341 341 338 339 342 343 344 345 345 347 350 353 358 360 359 361 360 358 346 344 341 357 363 362 360 350 348 354 357 355 356 356 356 355
Wind_Speed
11 11 4 4 6 2 7 7 3 7 6 6 7 2 8 9 8 8 17 12 19 18 16 14 13 14 15 17 18 17 15 16 14 13 12 12 13 14 15 15 14 13 14 14 14 14 15 14 15
4 4 6 3 4 4 7 4 9 11 10 8 6 2 3 12 9 15 15 17 21 18 18 17 13 14 16 16 18 17 16 17 14 11 11 9 10 11 13 14 13 12 12 13 13 13 12 13 12
6 6 6 1 2 8 7 6 9 7 4 2 5 8 5 6 11 16 19 19 18 17 17 17 14 15 16 16 17 17 17 17 15 12 11 8 6 8 10 12 12 11 10 10 11 11 11 10 9
5 6 5 3 11 8 8 4 4 6 7 6 3 9 8 4 14 11 20 18 18 16 16 16 15 15 15 16 17 17 17 18 17 13 12 10 4 2 7 10 10 10 9 9 9 9 9 9 7
6 5 4 6 10 7 2 1 0 4 5 6 5 9 11 11 10 21 19 16 17 16 17 16 14 14 15 15 16 16 18 17 19 15 11 3 4 9 2 6 8 9 8 7 6 6 7 6 6
3 4 4 9 12 7 3 1 0 4 3 5 11 13 9 10 15 19 18 17 15 15 16 17 14 15 14 15 16 17 19 18 17 17 18 7 4 2 11 4 4 6 7 5 4 4 5 4 3
5 3 7 8 8 8 4 2 2 4 4 7 6 6 8 12 17 18 16 15 15 15 16 14 15 14 15 14 15 17 18 19 19 18 18 18 7 6 13 7 5 3 4 4 4 3 3 2 1
4 3 5 5 6 11 4 2 2 2 6 5 1 6 9 15 19 18 15 15 14 12 14 13 13 14 14 14 15 17 18 19 19 19 19 21 15 13 15 11 6 4 2 3 3 2 2 2 2
4 4 7 9 10 8 4 1 2 2 2 2 2 4 13 21 20 18 16 15 13 11 13 14 14 13 13 12 14 15 18 18 17 17 18 19 11 10 14 13 7 6 4 1 0 2 4 4 5
5 9 11 6 5 8 3 2 2 3 2 3 7 10 19 22 20 19 18 17 17 15 15 13 14 13 12 11 13 12 12 12 11 10 15 11 13 13 17 18 12 10 8 5 4 4 5 9 4
5 8 6 5 4 2 1 4 4 5 5 3 9 14 19 21 19 18 17 16 16 15 12 14 11 11 11 8 9 5 6 4 7 11 7 10 8 11 11 9 10 10 13 8 10 8 9 5 6
4 5 5 4 1 2 3 2 2 2 6 6 7 17 20 20 19 18 16 15 15 15 13 12 13 11 10 6 6 8 6 6 5 9 13 5 5 6 7 6 7 7 5 6 4 5 2 6 4
4 9 4 2 5 6 3 4 5 3 6 7 13 16 19 18 18 16 15 14 15 15 14 13 12 11 10 8 8 7 4 5 7 8 10 8 10 6 7 9 8 7 6 6 6 6 5 5 6
7 9 11 3 6 6 7 7 2 4 9 12 15 16 16 18 17 15 15 14 14 14 14 14 14 12 11 10 8 6 6 8 5 6 7 11 8 6 8 8 7 8 8 7 6 6 5 6 5
6 9 6 4 3 7 4 12 7 6 11 13 14 14 14 16 17 16 15 15 14 13 13 14 13 13 12 11 9 8 6 7 5 6 9 10 8 6 6 3 4 5 6 7 6 6 6 6 6
3 5 6 8 3 2 7 5 3 7 10 12 13 14 14 16 17 15 15 14 14 12 12 12 10 12 13 11 9 8 8 7 3 1 2 7 8 9 9 5 7 7 5 7 7 6 6 5 5
2 3 4 2 3 3 5 10 7 1 8 9 12 14 14 14 14 15 15 15 13 13 11 12 11 12 13 11 9 9 8 4 6 5 3 7 9 9 10 7 6 4 6 6 5 7 6 6 6
5 4 3 4 5 6 6 10 10 8 9 8 10 12 14 16 16 15 15 14 15 15 15 12 9 12 11 9 9 8 7 4 7 8 6 10 6 7 11 8 7 9 5 9 7 5 4 7 5
5 7 8 5 5 7 9 10 12 9 8 7 8 12 14 15 15 14 15 14 12 12 13 16 15 13 12 10 9 8 7 7 7 7 10 12 11 9 10 5 7 8 6 8 5 6 7 5 5
5 9 8 9 1 7 11 13 9 5 5 4 6 11 12 14 16 16 16 13 12 13 14 15 14 14 13 9 8 7 6 7 8 8 11 11 11 9 9 7 9 8 6 6 6 7 5 4 4
8 8 8 9 10 11 9 7 1 6 7 5 3 7 9 14 18 19 20 18 16 14 12 11 12 13 12 11 8 7 5 5 4 7 10 9 13 12 10 9 7 5 5 6 6 6 7 5 4
15 6 6 9 10 7 5 5 8 5 6 13 10 4 5 11 15 17 19 21 19 13 10 12 12 13 11 12 11 11 6 7 7 6 7 7 9 9 12 12 10 11 6 9 7 7 7 6 5
7 3 8 9 11 7 4 10 10 3 5 10 9 6 3 5 15 18 20 20 19 17 13 7 10 12 11 14 13 9 10 7 5 6 8 7 7 10 11 11 11 10 8 9 10 7 7 5 4
5 11 9 8 6 9 7 9 11 7 7 9 8 7 6 2 10 14 16 16 16 16 15 13 11 14 13 14 15 14 11 10 7 7 6 7 7 7 9 10 10 10 10 10 9 9 9 8 6
10 15 6 7 7 3 6 7 10 6 7 8 9 8 6 4 4 5 10 13 15 17 16 17 13 12 13 13 14 14 14 12 10 8 8 6 6 6 8 10 11 9 10 8 9 9 9 9 8
11 11 4 3 2 4 6 4 8 5 5 6 5 6 7 8 8 7 6 7 10 12 13 14 13 11 10 11 11 11 12 9 9 9 8 6 6 7 7 9 11 11 11 10 6 8 9 9 9
9 11 10 10 7 8 3 3 11 3 4 6 7 6 9 10 10 11 9 5 8 9 11 11 9 9 9 10 9 10 10 11 8 6 6 6 9 8 7 10 10 11 12 12 8 9 9 9 9
7 5 7 4 4 7 6 6 6 7 4 5 8 10 8 12 12 11 8 7 5 4 7 9 10 11 11 9 8 8 8 10 9 4 8 6 6 10 9 8 9 10 12 14 12 10 10 10 8
7 9 4 8 6 9 10 5 6 4 3 5 5 9 7 8 9 8 8 7 6 6 4 3 5 7 8 12 11 8 7 6 9 8 11 6 6 9 10 11 6 10 10 13 9 12 10 12 10
6 8 8 7 8 4 8 10 6 4 2 5 5 5 9 4 7 7 7 6 6 5 5 4 6 7 7 8 7 7 8 9 11 10 9 6 9 9 10 8 8 7 12 12 11 13 10 12 9
Wind_Direction
183 197 224 219 225 128 74 74 334 69 99 69 111 5 47 22 359 59 135 140 140 141 138 141 134 135 134 132 137 134 132 134 129 128 124 121 113 113 110 108 107 106 105 102 100 106 107 107 112
169 172 219 256 244 106 81 37 59 50 73 96 104 146 97 80 56 124 131 142 151 145 149 142 131 135 135 135 139 137 139 137 137 128 121 123 120 120 115 114 112 109 107 108 107 103 102 109 111
235 225 268 321 38 67 83 69 82 78 73 48 111 47 37 65 116 137 127 144 149 150 143 120 134 136 140 140 143 139 139 132 129 132 122 110 124 122 122 119 119 115 113 109 109 109 110 110 118
206 188 214 54 85 76 66 98 50 46 68 58 48 85 98 86 126 124 141 144 148 150 134 134 138 138 140 142 144 144 139 128 119 107 77 75 2 166 141 128 129 128 122 116 113 112 110 111 117
220 247 81 84 99 94 94 34 22 45 37 41 339 86 99 124 115 135 143 151 151 153 131 149 148 145 143 140 141 145 146 146 136 124 78 95 81 333 238 139 139 137 130 127 120 115 110 111 112
173 274 65 76 84 94 123 23 304 27 62 105 96 105 85 117 139 145 150 152 155 150 145 141 151 155 151 148 149 148 152 157 144 148 159 144 56 272 288 250 176 155 146 140 134 123 110 104 105
25 35 56 77 85 84 64 54 338 18 41 57 117 85 109 143 145 151 157 149 154 149 150 159 160 157 162 161 161 157 157 163 159 164 162 144 172 241 275 282 246 208 174 152 141 127 115 123 97
337 278 99 54 60 77 101 119 3 325 71 120 327 122 160 147 153 154 155 157 156 158 148 164 165 168 169 163 168 169 168 169 173 175 168 159 169 208 266 263 231 240 225 182 154 159 186 195 141
280 64 62 74 64 88 128 91 114 19 143 99 93 48 121 146 155 157 158 159 160 170 167 170 169 173 181 175 169 171 175 174 174 177 178 169 166 204 249 242 290 252 245 261 240 250 226 219 191
354 46 37 43 69 62 133 179 131 217 185 147 134 104 132 153 162 166 170 166 176 175 182 174 179 174 183 178 169 183 180 180 190 180 178 191 181 199 223 237 239 253 236 248 252 270 273 229 207
54 33 31 63 24 24 74 212 181 249 155 99 175 150 156 159 169 174 177 174 179 178 187 175 183 179 184 196 165 192 190 171 184 186 192 205 194 193 212 229 227 229 209 241 199 211 222 153 238
317 48 360 24 342 285 246 19 259 303 60 21 123 155 163 168 177 180 181 175 179 183 188 181 179 182 201 182 200 189 183 182 216 197 187 201 207 210 193 222 229 239 236 228 243 258 28 269 201
334 348 352 287 254 256 294 283 306 266 144 121 128 158 170 175 179 182 185 183 184 187 188 186 188 189 197 208 203 224 149 185 198 202 200 189 207 219 184 220 238 236 223 214 233 255 226 219 232
338 313 302 324 254 264 274 303 243 116 146 147 151 165 177 180 179 176 188 190 190 192 191 196 197 188 202 207 218 223 222 215 183 207 190 193 211 212 234 191 215 233 224 229 226 227 239 222 234
312 283 294 30 331 257 286 267 226 102 164 166 167 169 176 185 181 185 187 189 191 192 189 197 198 192 201 204 209 222 226 226 176 208 203 198 193 206 218 233 308 207 196 222 222 221 224 237 220
301 247 294 61 355 94 246 302 55 145 191 186 184 173 178 182 188 186 186 193 184 197 190 201 200 198 201 207 206 221 219 232 130 345 271 240 211 212 213 205 196 245 213 212 208 209 200 230 227
227 49 21 116 60 341 248 301 74 62 199 205 193 187 181 177 189 185 200 196 191 190 190 198 197 218 198 206 217 219 218 213 128 227 199 247 251 207 234 195 214 194 215 225 227 218 225 227 240
331 332 14 345 19 301 289 283 292 238 243 231 200 201 192 176 186 179 194 210 194 191 180 196 173 240 211 202 215 223 214 186 171 195 197 229 236 223 213 231 190 214 203 229 221 209 236 251 254
310 292 310 328 356 294 309 301 301 317 270 257 201 209 198 189 168 179 191 194 207 206 192 193 193 185 225 201 207 213 213 181 186 195 214 232 234 224 233 205 207 206 230 248 190 214 212 241 249
292 296 280 303 290 291 301 304 324 334 339 325 234 210 209 179 166 181 198 196 198 212 207 196 200 189 205 203 219 226 216 176 196 196 221 224 239 229 216 182 240 192 231 223 227 212 218 232 248
232 314 345 325 313 267 292 238 96 72 69 64 180 198 199 187 185 189 196 195 201 196 200 201 199 199 196 215 208 219 226 232 191 210 224 221 229 231 222 197 212 248 244 243 197 242 220 232 206
298 49 319 303 295 352 330 108 83 93 92 62 64 119 185 180 195 195 201 199 199 199 162 194 196 205 195 196 218 220 208 228 203 203 223 220 226 214 223 214 206 214 209 242 235 200 237 239 195
322 356 320 304 285 258 79 273 105 114 97 21 26 32 49 193 192 201 202 203 199 200 172 200 178 203 204 192 214 215 219 221 226 211 205 209 222 223 219 218 214 220 207 213 242 234 223 250 227
311 269 246 250 261 239 57 310 106 47 359 357 4 0 1 274 194 194 198 194 202 207 196 205 185 201 195 202 199 215 220 215 213 212 224 218 212 204 209 224 223 225 219 221 213 226 233 240 243
233 248 234 209 202 15 45 275 50 39 25 351 351 359 20 33 119 155 177 187 196 200 206 212 204 215 214 210 205 210 219 217 222 227 221 248 223 220 214 217 228 226 223 227 220 210 239 229 229
215 305 313 246 306 10 119 272 91 39 0 26 14 27 44 61 76 110 148 167 188 201 202 220 219 223 225 220 218 223 227 221 215 217 253 242 242 235 221 217 225 221 228 222 232 233 234 214 227
153 232 16 288 177 255 64 157 243 135 27 32 29 35 61 74 80 88 87 93 164 191 201 213 227 238 236 231 231 224 226 237 226 228 224 238 251 263 236 232 234 234 222 215 218 231 226 230 219
304 68 229 187 290 318 343 299 283 19 5 31 34 39 60 78 63 73 71 57 73 165 190 207 216 224 220 216 225 227 230 233 229 226 265 231 251 272 258 236 236 239 229 223 214 224 222 223 217
171 209 202 307 293 312 293 347 40 7 347 331 12 48 37 50 69 87 82 73 64 73 94 201 228 240 230 217 208 208 243 234 210 206 218 219 237 257 254 246 228 224 225 217 209 226 218 216 223
282 303 278 282 298 278 290 286 83 54 351 349 335 33 39 43 87 116 84 63 67 64 50 36 349 319 291 265 253 242 220 225 215 251 279 325 242 237 237 232 217 210 227 210 217 216 201 219 211